INTELSAT 39 (IS-39)

Last updated on Mon Oct 14 2024 00:02:41 GMT+0000 (Coordinated Universal Time)

1 44476U 19049B 24286.98980687 .00000032 00000+0 00000+0 0 9998 2 44476 0.0212 233.3649 0000562 172.8642 34.1189 1.00270631 18987
UTC large
Height (km)
Speed (km/s)
/
Latitude / Longitude
Inclination (degrees)
Orbital Period (minutes)
Azimuth
Elevation
Range (km)
Doppler Factor

Next 0 passes for location: London (51.5072 / 0.1276)

Sorry there are no passes over London.